Time,TemperatureF,DewpointF,PressureIn,WindDirection,WindDirectionDegrees,WindSpeedMPH,WindSpeedGustMPH,Humidity,HourlyPrecipIn,Conditions,Clouds,dailyrainin,SolarRadiationWatts/m^2,SoftwareType,DateUTC
2013-04-08 00:00:00,49.4,44.8,29.83,West,281,3.7,5.8,84,0.01,,,0.12,0.0,WeatherDisplay:10.37,2013-04-08 07:00:00,
2013-04-08 00:05:00,48.9,44.3,29.84,NE,36,10.7,28.8,84,0.00,RA,,0.00,0.0,WeatherDisplay:10.37,2013-04-08 07:05:00,
2013-04-08 00:11:00,48.5,43.6,29.83,WNW,298,6.1,13.8,83,0.00,RA,,0.00,0.0,WeatherDisplay:10.37,2013-04-08 07:11:00,
2013-04-08 00:16:00,48.4,43.5,29.83,WNW,295,8.9,18.4,83,0.00,,,0.00,0.0,WeatherDisplay:10.37,2013-04-08 07:16:00,
2013-04-08 00:21:00,48.3,43.1,29.83,ENE,70,8.5,11.5,82,0.00,,,0.00,0.0,WeatherDisplay:10.37,2013-04-08 07:21:00,
2013-04-08 00:27:00,48.1,43.2,29.82,NNW,348,9.7,12.7,83,0.00,,,0.00,0.0,WeatherDisplay:10.37,2013-04-08 07:27:00,
2013-04-08 00:32:00,48.0,43.1,29.82,WNW,292,5.3,14.0,83,0.00,,,0.00,0.0,WeatherDisplay:10.37,2013-04-08 07:32:00,
2013-04-08 00:37:00,47.9,42.7,29.82,NNW,348,7.7,11.5,82,0.00,,,0.00,0.0,WeatherDisplay:10.37,2013-04-08 07:37:00,
2013-04-08 00:42:00,47.8,42.6,29.83,SSE,164,6.3,12.7,82,0.00,,,0.00,0.0,WeatherDisplay:10.37,2013-04-08 07:42:00,
2013-04-08 00:47:00,47.8,42.6,29.83,SW,236,3.7,6.9,82,0.00,,,0.00,0.0,WeatherDisplay:10.37,2013-04-08 07:47:00,
2013-04-08 00:52:00,47.8,42.3,29.83,West,261,4.7,8.1,81,0.00,,,0.00,0.0,WeatherDisplay:10.37,2013-04-08 07:52:00,
2013-04-08 00:57:00,47.9,42.3,29.82,West,261,9.3,17.3,81,0.00,,,0.00,0.0,WeatherDisplay:10.37,2013-04-08 07:57:00,
2013-04-08 01:02:00,47.9,42.0,29.82,SW,236,2.0,8.1,80,0.00,,,0.00,0.0,WeatherDisplay:10.37,2013-04-08 08:02:00,
2013-04-08 01:07:00,48.0,42.4,29.83,NW,308,4.1,19.0,81,0.00,,,0.00,0.0,WeatherDisplay:10.37,2013-04-08 08:07:00,
2013-04-08 01:12:00,47.8,41.9,29.83,NE,36,3.6,6.9,80,0.00,,,0.00,0.0,WeatherDisplay:10.37,2013-04-08 08:12:00,
2013-04-08 01:17:00,47.8,42.3,29.82,WSW,249,8.6,17.3,81,0.00,,,0.00,0.0,WeatherDisplay:10.37,2013-04-08 08:17:00,
2013-04-08 01:22:00,47.7,41.8,29.82,NW,304,10.2,20.7,80,0.00,,,0.00,0.0,WeatherDisplay:10.37,2013-04-08 08:22:00,
2013-04-08 01:27:00,47.8,41.9,29.81,NW,304,7.9,14.0,80,0.00,,,0.00,0.0,WeatherDisplay:10.37,2013-04-08 08:27:00,
2013-04-08 01:32:00,47.8,41.9,29.81,West,272,4.8,10.4,80,0.00,,,0.00,0.0,WeatherDisplay:10.37,2013-04-08 08:32:00,
2013-04-08 01:37:00,47.8,41.9,29.83,West,277,6.2,21.0,80,0.00,,,0.00,0.0,WeatherDisplay:10.37,2013-04-08 08:37:00,
2013-04-08 01:43:00,47.7,41.5,29.81,West,267,4.5,11.5,79,0.00,,,0.00,0.0,WeatherDisplay:10.37,2013-04-08 08:43:00,
2013-04-08 01:48:00,47.7,41.5,29.82,West,275,5.8,17.3,79,0.00,,,0.00,0.0,WeatherDisplay:10.37,2013-04-08 08:48:00,
2013-04-08 01:53:00,47.7,41.5,29.80,NE,49,7.4,15.0,79,0.00,,,0.00,0.0,WeatherDisplay:10.37,2013-04-08 08:53:00,
2013-04-08 01:58:00,47.8,41.3,29.81,NNW,342,3.6,11.5,78,0.00,,,0.00,0.0,WeatherDisplay:10.37,2013-04-08 08:58:00,
2013-04-08 02:03:00,47.7,41.2,29.80,West,272,6.0,17.3,78,0.00,,,0.00,0.0,WeatherDisplay:10.37,2013-04-08 09:03:00,
2013-04-08 02:08:00,47.7,41.2,29.81,NNE,22,11.1,32.2,78,0.00,,,0.00,0.0,WeatherDisplay:10.37,2013-04-08 09:08:00,
2013-04-08 02:13:00,47.7,40.8,29.82,SSW,203,5.1,10.4,77,0.00,,,0.00,0.0,WeatherDisplay:10.37,2013-04-08 09:13:00,
2013-04-08 02:18:00,47.7,41.2,29.81,West,274,7.6,18.4,78,0.00,,,0.00,0.0,WeatherDisplay:10.37,2013-04-08 09:18:00,
2013-04-08 02:23:00,47.7,41.2,29.82,West,278,11.5,18.4,78,0.00,,,0.00,0.0,WeatherDisplay:10.37,2013-04-08 09:23:00,
2013-04-08 02:28:00,47.7,40.8,29.82,West,259,7.4,21.9,77,0.00,,,0.00,0.0,WeatherDisplay:10.37,2013-04-08 09:28:00,
2013-04-08 02:33:00,47.6,40.7,29.81,West,274,3.7,5.8,77,0.00,,,0.00,0.0,WeatherDisplay:10.37,2013-04-08 09:33:00,
2013-04-08 02:39:00,47.6,40.7,29.81,WNW,295,7.2,20.7,77,0.00,,,0.00,0.0,WeatherDisplay:10.37,2013-04-08 09:39:00,
2013-04-08 02:44:00,47.6,40.7,29.80,NW,323,9.1,12.7,77,0.00,,,0.00,0.0,WeatherDisplay:10.37,2013-04-08 09:44:00,
2013-04-08 02:49:00,47.5,40.6,29.80,WNW,283,4.0,11.5,77,0.00,,,0.00,0.0,WeatherDisplay:10.37,2013-04-08 09:49:00,
2013-04-08 02:54:00,47.4,40.6,29.78,NW,314,10.4,19.6,77,0.00,,,0.00,0.0,WeatherDisplay:10.37,2013-04-08 09:54:00,
2013-04-08 02:59:00,47.3,40.5,29.78,NNW,329,4.3,10.4,77,0.00,,,0.00,0.0,WeatherDisplay:10.37,2013-04-08 09:59:00,
2013-04-08 03:04:00,47.2,40.4,29.79,West,279,6.0,18.0,77,0.00,,,0.00,0.0,WeatherDisplay:10.37,2013-04-08 10:04:00,
2013-04-08 03:10:00,47.2,40.4,29.79,WNW,289,1.8,5.8,77,0.00,,,0.00,0.0,WeatherDisplay:10.37,2013-04-08 10:10:00,
2013-04-08 03:16:00,47.2,40.4,29.79,WNW,287,7.0,20.0,77,0.00,,,0.00,0.0,WeatherDisplay:10.37,2013-04-08 10:16:00,
2013-04-08 03:21:00,47.2,40.4,29.79,West,260,5.0,10.4,77,0.00,,,0.00,0.0,WeatherDisplay:10.37,2013-04-08 10:21:00,
2013-04-08 03:28:00,47.0,40.2,29.79,SE,146,2.5,3.5,77,0.00,,,0.00,0.0,WeatherDisplay:10.37,2013-04-08 10:28:00,
2013-04-08 03:33:00,47.0,40.2,29.80,West,259,4.3,5.8,77,0.00,,,0.00,0.0,WeatherDisplay:10.37,2013-04-08 10:33:00,
2013-04-08 03:38:00,46.9,40.1,29.81,WNW,296,3.1,9.2,77,0.00,,,0.00,0.0,WeatherDisplay:10.37,2013-04-08 10:38:00,
2013-04-08 03:43:00,46.9,40.1,29.81,WSW,246,8.2,11.5,77,0.00,,,0.00,0.0,WeatherDisplay:10.37,2013-04-08 10:43:00,
2013-04-08 03:49:00,46.9,40.1,29.82,West,269,6.3,11.5,77,0.00,,,0.00,0.0,WeatherDisplay:10.37,2013-04-08 10:49:00,
2013-04-08 03:54:00,47.0,39.8,29.82,WNW,290,5.3,10.4,76,0.00,,,0.00,0.0,WeatherDisplay:10.37,2013-04-08 10:54:00,
2013-04-08 03:59:00,47.0,39.8,29.82,SSW,206,4.0,8.1,76,0.00,,,0.00,0.0,WeatherDisplay:10.37,2013-04-08 10:59:00,
2013-04-08 04:04:00,46.9,39.7,29.82,West,265,4.3,10.4,76,0.00,,,0.00,0.0,WeatherDisplay:10.37,2013-04-08 11:04:00,
2013-04-08 04:09:00,46.9,39.4,29.82,North,5,2.7,5.8,75,0.00,,,0.00,0.0,WeatherDisplay:10.37,2013-04-08 11:09:00,
2013-04-08 04:14:00,46.9,39.0,29.83,WNW,286,4.6,7.0,74,0.00,,,0.00,0.0,WeatherDisplay:10.37,2013-04-08 11:14:00,
2013-04-08 04:19:00,47.0,38.8,29.82,NNE,26,4.7,11.5,73,0.00,,,0.00,0.0,WeatherDisplay:10.37,2013-04-08 11:19:00,
2013-04-08 04:24:00,47.0,38.8,29.82,WSW,249,3.1,9.2,73,0.00,,,0.00,0.0,WeatherDisplay:10.37,2013-04-08 11:24:00,
2013-04-08 04:29:00,47.0,38.4,29.82,West,259,6.4,16.1,72,0.00,,,0.00,0.0,WeatherDisplay:10.37,2013-04-08 11:29:00,
2013-04-08 04:34:00,47.1,38.2,29.83,West,274,3.3,9.2,71,0.00,,,0.00,0.0,WeatherDisplay:10.37,2013-04-08 11:34:00,
2013-04-08 04:39:00,47.0,38.4,29.83,NNE,30,5.5,9.2,72,0.00,,,0.00,0.0,WeatherDisplay:10.37,2013-04-08 11:39:00,
2013-04-08 04:44:00,46.8,38.2,29.84,NNE,30,5.3,9.2,72,0.00,,,0.00,0.0,WeatherDisplay:10.37,2013-04-08 11:44:00,
2013-04-08 04:50:00,46.7,38.1,29.84,WSW,254,4.0,5.8,72,0.00,,,0.00,0.0,WeatherDisplay:10.37,2013-04-08 11:50:00,
2013-04-08 04:56:00,46.7,37.8,29.84,WNW,290,3.0,12.0,71,0.00,,,0.00,0.0,WeatherDisplay:10.37,2013-04-08 11:56:00,
2013-04-08 05:01:00,46.7,37.8,29.84,West,273,3.3,15.0,71,0.00,,,0.00,0.0,WeatherDisplay:10.37,2013-04-08 12:01:00,
2013-04-08 05:06:00,46.7,37.8,29.84,NW,325,6.3,19.6,71,0.00,CLR,,0.00,0.0,WeatherDisplay:10.37,2013-04-08 12:06:00,
2013-04-08 05:12:00,46.6,37.7,29.85,NW,311,2.0,11.5,71,0.00,CLR,,0.00,0.0,WeatherDisplay:10.37,2013-04-08 12:12:00,
2013-04-08 05:17:00,46.5,37.6,29.85,WNW,287,2.3,6.9,71,0.00,CLR,,0.00,0.0,WeatherDisplay:10.37,2013-04-08 12:17:00,
2013-04-08 05:24:00,46.3,37.4,29.85,West,259,6.6,18.4,71,0.00,CLR,,0.00,0.0,WeatherDisplay:10.37,2013-04-08 12:24:00,
2013-04-08 05:29:00,46.2,37.3,29.84,West,277,6.9,11.5,71,0.00,CLR,,0.00,0.0,WeatherDisplay:10.37,2013-04-08 12:29:00,
2013-04-08 05:34:00,46.2,37.3,29.85,West,277,3.3,8.1,71,0.00,CLR,,0.00,0.0,WeatherDisplay:10.37,2013-04-08 12:34:00,
2013-04-08 05:39:00,46.2,37.0,29.85,NNE,17,6.6,9.2,70,0.00,CLR,,0.00,0.0,WeatherDisplay:10.37,2013-04-08 12:39:00,
2013-04-08 05:44:00,46.2,37.0,29.86,NNE,16,3.1,6.9,70,0.00,CLR,,0.00,0.0,WeatherDisplay:10.37,2013-04-08 12:44:00,
2013-04-08 05:49:00,46.1,36.9,29.85,NNE,33,3.0,5.8,70,0.00,CLR,,0.00,0.0,WeatherDisplay:10.37,2013-04-08 12:49:00,
2013-04-08 05:54:00,46.1,36.5,29.85,WNW,284,1.7,5.8,69,0.00,CLR,,0.00,0.0,WeatherDisplay:10.37,2013-04-08 12:54:00,
2013-04-08 05:59:00,46.1,36.5,29.86,North,355,2.5,4.0,69,0.00,CLR,,0.00,0.0,WeatherDisplay:10.37,2013-04-08 12:59:00,
2013-04-08 06:04:00,46.1,36.5,29.85,WNW,299,2.1,2.3,69,0.00,,,0.00,0.0,WeatherDisplay:10.37,2013-04-08 13:04:00,
2013-04-08 06:09:00,46.1,36.5,29.86,West,271,2.0,6.0,69,0.00,,,0.00,0.0,WeatherDisplay:10.37,2013-04-08 13:09:00,
2013-04-08 06:14:00,46.1,36.5,29.86,NW,310,7.0,10.4,69,0.00,,,0.00,0.0,WeatherDisplay:10.37,2013-04-08 13:14:00,
2013-04-08 06:19:00,46.1,36.5,29.86,SSE,165,1.9,6.9,69,0.00,,,0.00,0.0,WeatherDisplay:10.37,2013-04-08 13:19:00,
2013-04-08 06:24:00,46.1,36.5,29.87,North,350,4.8,11.5,69,0.00,,,0.00,0.0,WeatherDisplay:10.37,2013-04-08 13:24:00,
2013-04-08 06:29:00,46.1,36.5,29.87,WNW,294,3.0,6.0,69,0.00,,,0.00,0.0,WeatherDisplay:10.37,2013-04-08 13:29:00,
2013-04-08 06:34:00,46.1,36.5,29.87,WSW,257,0.4,4.6,69,0.00,,,0.00,0.0,WeatherDisplay:10.37,2013-04-08 13:34:00,
2013-04-08 06:39:00,46.1,36.5,29.88,NNE,15,2.6,10.4,69,0.00,,,0.00,0.0,WeatherDisplay:10.37,2013-04-08 13:39:00,
2013-04-08 06:45:00,46.1,36.1,29.88,NNW,337,6.0,10.4,68,0.00,,,0.00,0.0,WeatherDisplay:10.37,2013-04-08 13:45:00,
2013-04-08 06:50:00,46.1,35.7,29.89,NNE,13,2.2,4.6,67,0.00,,,0.00,7.0,WeatherDisplay:10.37,2013-04-08 13:50:00,
2013-04-08 06:55:00,46.1,35.7,29.89,NE,39,2.6,3.5,67,0.00,,,0.00,12.0,WeatherDisplay:10.37,2013-04-08 13:55:00,
2013-04-08 07:00:00,46.1,35.7,29.89,North,349,1.8,2.3,67,0.00,,,0.00,14.0,WeatherDisplay:10.37,2013-04-08 14:00:00,
2013-04-08 07:05:00,46.3,35.9,29.89,North,5,1.3,3.5,67,0.00,,,0.00,19.0,WeatherDisplay:10.37,2013-04-08 14:05:00,
2013-04-08 07:10:00,46.5,35.7,29.90,West,278,6.1,11.5,66,0.00,,,0.00,23.0,WeatherDisplay:10.37,2013-04-08 14:10:00,
2013-04-08 07:15:00,46.7,35.6,29.90,NE,34,4.4,6.9,65,0.00,,,0.00,33.0,WeatherDisplay:10.37,2013-04-08 14:15:00,
2013-04-08 07:20:00,46.9,35.7,29.90,WNW,287,4.7,11.5,65,0.00,,,0.00,32.0,WeatherDisplay:10.37,2013-04-08 14:20:00,
2013-04-08 07:25:00,47.2,35.6,29.91,North,355,2.2,3.5,64,0.00,CLR,,0.00,33.0,WeatherDisplay:10.37,2013-04-08 14:25:00,
2013-04-08 07:31:00,47.3,35.7,29.91,West,260,2.9,6.9,64,0.00,CLR,,0.00,56.0,WeatherDisplay:10.37,2013-04-08 14:31:00,
2013-04-08 07:36:00,47.6,35.6,29.91,NW,326,1.4,2.3,63,0.00,CLR,,0.00,109.0,WeatherDisplay:10.37,2013-04-08 14:36:00,
2013-04-08 07:41:00,47.7,35.7,29.91,West,279,6.7,7.0,63,0.00,CLR,,0.00,118.0,WeatherDisplay:10.37,2013-04-08 14:41:00,
2013-04-08 07:46:00,48.0,35.6,29.92,NNW,342,2.9,11.5,62,0.00,CLR,,0.00,139.0,WeatherDisplay:10.37,2013-04-08 14:46:00,
2013-04-08 07:52:00,48.3,35.9,29.92,North,5,5.0,5.8,62,0.00,CLR,,0.00,165.0,WeatherDisplay:10.37,2013-04-08 14:52:00,
2013-04-08 07:57:00,48.6,36.2,29.92,NNW,334,5.8,12.7,62,0.00,CLR,,0.00,188.0,WeatherDisplay:10.37,2013-04-08 14:57:00,
2013-04-08 08:02:00,48.7,35.8,29.93,WSW,250,5.3,12.7,61,0.00,CLR,,0.00,209.0,WeatherDisplay:10.37,2013-04-08 15:02:00,
2013-04-08 08:07:00,48.8,35.5,29.93,West,259,4.1,12.7,60,0.00,CLR,,0.00,230.0,WeatherDisplay:10.37,2013-04-08 15:07:00,
2013-04-08 08:12:00,49.2,35.9,29.93,NNE,13,4.0,10.4,60,0.00,CLR,,0.00,250.0,WeatherDisplay:10.37,2013-04-08 15:12:00,
2013-04-08 08:17:00,49.4,36.1,29.93,WNW,286,3.6,13.8,60,0.01,RA,,0.01,269.0,WeatherDisplay:10.37,2013-04-08 15:17:00,
2013-04-08 08:22:00,49.7,36.4,29.92,NE,37,2.8,10.4,60,0.01,RA,,0.01,285.0,WeatherDisplay:10.37,2013-04-08 15:22:00,
2013-04-08 08:27:00,49.9,35.7,29.92,WNW,284,5.8,12.7,58,0.01,CLR,,0.01,304.0,WeatherDisplay:10.37,2013-04-08 15:27:00,
2013-04-08 08:32:00,50.1,36.3,29.92,NNW,336,3.5,5.8,59,0.01,CLR,,0.01,325.0,WeatherDisplay:10.37,2013-04-08 15:32:00,
2013-04-08 08:37:00,50.3,36.5,29.92,West,269,5.9,5.9,59,0.01,CLR,,0.01,345.0,WeatherDisplay:10.37,2013-04-08 15:37:00,
2013-04-08 08:43:00,50.4,36.6,29.92,NW,311,4.4,5.8,59,0.01,CLR,,0.01,364.0,WeatherDisplay:10.37,2013-04-08 15:43:00,
2013-04-08 08:48:00,50.8,36.1,29.92,NNW,334,5.2,16.1,57,0.01,CLR,,0.01,385.0,WeatherDisplay:10.37,2013-04-08 15:48:00,
2013-04-08 08:54:00,51.3,36.6,29.92,NNW,337,3.4,10.4,57,0.01,CLR,,0.01,408.0,WeatherDisplay:10.37,2013-04-08 15:54:00,
2013-04-08 08:59:00,51.9,37.6,29.93,North,5,3.5,6.9,58,0.01,CLR,,0.01,424.0,WeatherDisplay:10.37,2013-04-08 15:59:00,
2013-04-08 09:05:00,52.5,37.2,29.93,WSW,249,4.4,8.1,56,0.01,CLR,,0.01,446.0,WeatherDisplay:10.37,2013-04-08 16:05:00,
2013-04-08 09:10:00,52.3,37.1,29.93,West,278,4.3,6.9,56,0.01,CLR,,0.01,468.0,WeatherDisplay:10.37,2013-04-08 16:10:00,
2013-04-08 09:15:00,52.6,36.9,29.93,West,281,5.2,5.2,55,0.00,CLR,,0.01,483.0,WeatherDisplay:10.37,2013-04-08 16:15:00,
2013-04-08 09:22:00,53.1,37.3,29.93,NE,36,1.9,3.5,55,0.00,CLR,,0.01,506.0,WeatherDisplay:10.37,2013-04-08 16:22:00,
2013-04-08 09:27:00,53.4,36.7,29.93,WNW,301,1.6,4.6,53,0.00,CLR,,0.01,526.0,WeatherDisplay:10.37,2013-04-08 16:27:00,
2013-04-08 09:32:00,54.2,37.4,29.93,NW,305,1.0,3.5,53,0.00,CLR,,0.01,543.0,WeatherDisplay:10.37,2013-04-08 16:32:00,
2013-04-08 09:37:00,54.7,37.4,29.93,NW,313,3.7,8.1,52,0.00,CLR,,0.01,559.0,WeatherDisplay:10.37,2013-04-08 16:37:00,
2013-04-08 09:42:00,54.6,36.8,29.93,NNW,329,4.5,11.5,51,0.00,CLR,,0.01,578.0,WeatherDisplay:10.37,2013-04-08 16:42:00,
2013-04-08 09:47:00,55.1,38.3,29.93,NE,38,1.3,7.0,53,0.00,CLR,,0.01,594.0,WeatherDisplay:10.37,2013-04-08 16:47:00,
2013-04-08 09:52:00,55.0,37.2,29.93,NNW,333,2.8,4.6,51,0.00,CLR,,0.01,612.0,WeatherDisplay:10.37,2013-04-08 16:52:00,
2013-04-08 09:58:00,54.8,37.5,29.93,NNE,27,5.2,12.7,52,0.00,CLR,,0.01,628.0,WeatherDisplay:10.37,2013-04-08 16:58:00,
2013-04-08 10:04:00,55.5,37.1,29.94,WSW,254,1.8,5.8,50,0.00,CLR,,0.01,650.0,WeatherDisplay:10.37,2013-04-08 17:04:00,
2013-04-08 10:10:00,55.8,37.9,29.93,WNW,287,3.9,6.9,51,0.00,CLR,,0.01,668.0,WeatherDisplay:10.37,2013-04-08 17:10:00,
2013-04-08 10:15:00,56.0,37.6,29.94,NNW,337,1.3,4.6,50,0.00,CLR,,0.01,680.0,WeatherDisplay:10.37,2013-04-08 17:15:00,
2013-04-08 10:21:00,57.3,37.8,29.94,North,355,4.1,9.2,48,0.00,CLR,,0.01,700.0,WeatherDisplay:10.37,2013-04-08 17:21:00,
2013-04-08 10:26:00,57.2,35.5,29.94,North,360,3.3,5.8,44,0.00,CLR,,0.01,717.0,WeatherDisplay:10.37,2013-04-08 17:26:00,
2013-04-08 10:31:00,57.4,36.8,29.94,West,262,3.5,9.2,46,0.00,CLR,,0.01,737.0,WeatherDisplay:10.37,2013-04-08 17:31:00,
2013-04-08 10:36:00,57.7,36.5,29.94,SSW,205,2.9,11.5,45,0.00,CLR,,0.01,747.0,WeatherDisplay:10.37,2013-04-08 17:36:00,
2013-04-08 10:41:00,58.2,36.9,29.93,WSW,256,4.8,12.7,45,0.00,CLR,,0.01,761.0,WeatherDisplay:10.37,2013-04-08 17:41:00,
2013-04-08 10:47:00,58.1,36.9,29.93,SSW,198,2.1,3.5,45,0.00,CLR,,0.01,779.0,WeatherDisplay:10.37,2013-04-08 17:47:00,
2013-04-08 10:52:00,58.4,36.6,29.93,SSW,203,3.3,9.2,44,0.00,CLR,,0.01,788.0,WeatherDisplay:10.37,2013-04-08 17:52:00,
2013-04-08 10:57:00,59.1,37.2,29.93,NE,50,3.5,6.9,44,0.00,CLR,,0.01,800.0,WeatherDisplay:10.37,2013-04-08 17:57:00,
2013-04-08 11:02:00,59.4,36.9,29.93,West,271,2.9,9.0,43,0.00,CLR,,0.01,810.0,WeatherDisplay:10.37,2013-04-08 18:02:00,
2013-04-08 11:07:00,59.2,36.1,29.93,West,271,8.8,17.3,42,0.00,CLR,,0.01,823.0,WeatherDisplay:10.37,2013-04-08 18:07:00,
2013-04-08 11:12:00,59.1,36.6,29.93,West,280,2.4,3.5,43,0.00,CLR,,0.01,833.0,WeatherDisplay:10.37,2013-04-08 18:12:00,
2013-04-08 11:17:00,60.0,36.2,29.94,ENE,67,3.6,11.5,41,0.00,CLR,,0.01,847.0,WeatherDisplay:10.37,2013-04-08 18:17:00,
2013-04-08 11:22:00,59.8,36.0,29.94,North,355,5.7,9.2,41,0.00,CLR,,0.01,854.0,WeatherDisplay:10.37,2013-04-08 18:22:00,
2013-04-08 11:27:00,59.8,36.6,29.94,WNW,285,2.5,5.8,42,0.00,CLR,,0.01,856.0,WeatherDisplay:10.37,2013-04-08 18:27:00,
2013-04-08 11:32:00,59.6,36.5,29.94,WSW,257,7.5,19.6,42,0.00,CLR,,0.01,872.0,WeatherDisplay:10.37,2013-04-08 18:32:00,
2013-04-08 11:37:00,59.8,37.2,29.94,WNW,288,6.1,9.2,43,0.00,CLR,,0.01,879.0,WeatherDisplay:10.37,2013-04-08 18:37:00,
2013-04-08 11:42:00,60.0,38.0,29.94,NNW,342,4.1,12.7,44,0.00,CLR,,0.01,884.0,WeatherDisplay:10.37,2013-04-08 18:42:00,
2013-04-08 11:47:00,60.5,37.9,29.94,North,9,4.6,11.5,43,0.00,CLR,,0.01,898.0,WeatherDisplay:10.37,2013-04-08 18:47:00,
2013-04-08 11:52:00,61.0,38.9,29.94,West,259,6.2,11.5,44,0.00,CLR,,0.01,907.0,WeatherDisplay:10.37,2013-04-08 18:52:00,
2013-04-08 11:57:00,60.3,38.3,29.94,WNW,292,1.9,4.6,44,0.00,CLR,,0.01,911.0,WeatherDisplay:10.37,2013-04-08 18:57:00,
2013-04-08 12:02:00,60.7,38.6,29.94,NNW,330,3.4,8.1,44,0.00,CLR,,0.01,918.0,WeatherDisplay:10.37,2013-04-08 19:02:00,
2013-04-08 12:07:00,60.5,37.9,29.95,West,278,9.8,16.1,43,0.00,CLR,,0.01,923.0,WeatherDisplay:10.37,2013-04-08 19:07:00,
2013-04-08 12:13:00,61.1,39.6,29.94,West,275,3.2,3.5,45,0.00,CLR,,0.01,932.0,WeatherDisplay:10.37,2013-04-08 19:13:00,
2013-04-08 12:18:00,61.2,39.7,29.94,WNW,295,5.4,8.1,45,0.00,CLR,,0.01,937.0,WeatherDisplay:10.37,2013-04-08 19:18:00,
2013-04-08 12:23:00,62.1,40.5,29.94,WNW,297,1.8,3.5,45,0.00,CLR,,0.01,946.0,WeatherDisplay:10.37,2013-04-08 19:23:00,
2013-04-08 12:29:00,61.5,39.4,29.94,WSW,239,4.7,6.9,44,0.00,CLR,,0.01,947.0,WeatherDisplay:10.37,2013-04-08 19:29:00,
2013-04-08 12:34:00,62.0,40.4,29.94,West,268,6.3,12.7,45,0.00,CLR,,0.01,951.0,WeatherDisplay:10.37,2013-04-08 19:34:00,
2013-04-08 12:39:00,61.0,38.9,29.94,West,271,4.8,15.0,44,0.00,CLR,,0.01,956.0,WeatherDisplay:10.37,2013-04-08 19:39:00,
2013-04-08 12:44:00,61.4,38.7,29.93,NW,311,4.1,6.9,43,0.00,CLR,,0.01,960.0,WeatherDisplay:10.37,2013-04-08 19:44:00,
2013-04-08 12:49:00,61.5,37.6,29.93,West,259,3.6,4.6,41,0.00,CLR,,0.01,965.0,WeatherDisplay:10.37,2013-04-08 19:49:00,
2013-04-08 12:54:00,61.6,38.9,29.93,WNW,288,4.6,11.5,43,0.00,CLR,,0.01,965.0,WeatherDisplay:10.37,2013-04-08 19:54:00,
2013-04-08 12:59:00,62.1,39.9,29.93,WNW,286,5.5,13.8,44,0.00,CLR,,0.01,967.0,WeatherDisplay:10.37,2013-04-08 19:59:00,
2013-04-08 13:04:00,63.7,40.2,29.93,West,281,6.3,10.4,42,0.00,CLR,,0.01,967.0,WeatherDisplay:10.37,2013-04-08 20:04:00,
2013-04-08 13:09:00,63.2,39.1,29.93,WNW,284,5.9,10.4,41,0.00,CLR,,0.01,967.0,WeatherDisplay:10.37,2013-04-08 20:09:00,
2013-04-08 13:14:00,62.9,40.0,29.93,NW,312,2.9,9.2,43,0.00,CLR,,0.01,965.0,WeatherDisplay:10.37,2013-04-08 20:14:00,
2013-04-08 13:19:00,63.0,39.5,29.93,NNW,334,4.0,6.9,42,0.00,CLR,,0.01,958.0,WeatherDisplay:10.37,2013-04-08 20:19:00,
2013-04-08 13:24:00,63.6,41.9,29.93,WNW,284,2.2,6.0,45,0.00,CLR,,0.01,960.0,WeatherDisplay:10.37,2013-04-08 20:24:00,
2013-04-08 13:30:00,64.0,41.0,29.92,West,269,2.8,9.2,43,0.00,CLR,,0.01,962.0,WeatherDisplay:10.37,2013-04-08 20:30:00,
2013-04-08 13:35:00,64.5,40.3,29.92,West,275,3.7,8.1,41,0.00,CLR,,0.01,960.0,WeatherDisplay:10.37,2013-04-08 20:35:00,
2013-04-08 13:40:00,64.2,40.0,29.92,West,279,3.4,11.5,41,0.00,CLR,,0.01,956.0,WeatherDisplay:10.37,2013-04-08 20:40:00,
2013-04-08 13:45:00,65.0,41.9,29.92,NNE,26,2.7,6.9,43,0.00,CLR,,0.01,954.0,WeatherDisplay:10.37,2013-04-08 20:45:00,
2013-04-08 13:50:00,64.9,41.2,29.92,WNW,300,5.5,10.4,42,0.00,CLR,,0.01,956.0,WeatherDisplay:10.37,2013-04-08 20:50:00,
2013-04-08 13:55:00,65.4,42.3,29.92,North,360,0.8,11.5,43,0.00,CLR,,0.01,956.0,WeatherDisplay:10.37,2013-04-08 20:55:00,
2013-04-08 14:00:00,65.8,42.1,29.92,North,9,2.2,3.5,42,0.00,CLR,,0.01,951.0,WeatherDisplay:10.37,2013-04-08 21:00:00,
2013-04-08 14:05:00,66.0,42.2,29.92,SW,224,0.9,4.6,42,0.00,CLR,,0.01,946.0,WeatherDisplay:10.37,2013-04-08 21:05:00,
2013-04-08 14:10:00,65.7,42.0,29.92,WNW,289,4.4,9.2,42,0.00,CLR,,0.01,935.0,WeatherDisplay:10.37,2013-04-08 21:10:00,
2013-04-08 14:15:00,65.3,42.2,29.91,West,272,3.6,7.0,43,0.00,CLR,,0.01,928.0,WeatherDisplay:10.37,2013-04-08 21:15:00,
2013-04-08 14:20:00,66.3,43.1,29.91,NNE,14,4.8,9.2,43,0.00,CLR,,0.01,921.0,WeatherDisplay:10.37,2013-04-08 21:20:00,
2013-04-08 14:25:00,66.0,41.6,29.91,NE,49,8.4,12.7,41,0.00,CLR,,0.01,916.0,WeatherDisplay:10.37,2013-04-08 21:25:00,
2013-04-08 14:30:00,65.6,42.5,29.91,NNW,338,2.4,4.0,43,0.00,CLR,,0.01,902.0,WeatherDisplay:10.37,2013-04-08 21:30:00,
2013-04-08 14:35:00,66.4,42.0,29.92,NW,319,2.7,5.8,41,0.00,CLR,,0.01,904.0,WeatherDisplay:10.37,2013-04-08 21:35:00,
2013-04-08 14:40:00,66.1,41.7,29.91,NW,319,4.0,8.1,41,0.00,CLR,,0.01,891.0,WeatherDisplay:10.37,2013-04-08 21:40:00,
2013-04-08 14:45:00,66.2,41.8,29.91,West,271,6.6,13.8,41,0.00,CLR,,0.01,884.0,WeatherDisplay:10.37,2013-04-08 21:45:00,
2013-04-08 14:50:00,65.7,42.6,29.91,WNW,300,4.4,4.4,43,0.00,CLR,,0.01,875.0,WeatherDisplay:10.37,2013-04-08 21:50:00,
2013-04-08 14:55:00,65.2,41.5,29.91,North,360,1.9,6.9,42,0.00,CLR,,0.01,867.0,WeatherDisplay:10.37,2013-04-08 21:55:00,
2013-04-08 15:00:00,65.2,42.7,29.91,SSE,150,1.4,10.4,44,0.00,CLR,,0.01,854.0,WeatherDisplay:10.37,2013-04-08 22:00:00,
2013-04-08 15:05:00,65.2,43.9,29.91,SW,219,0.6,2.3,46,0.00,CLR,,0.01,849.0,WeatherDisplay:10.37,2013-04-08 22:05:00,
2013-04-08 15:10:00,65.5,43.6,29.91,SW,230,3.4,9.2,45,0.00,CLR,,0.01,840.0,WeatherDisplay:10.37,2013-04-08 22:10:00,
2013-04-08 15:15:00,65.4,43.5,29.91,South,169,3.2,9.2,45,0.00,CLR,,0.01,831.0,WeatherDisplay:10.37,2013-04-08 22:15:00,
2013-04-08 15:20:00,64.6,43.3,29.91,WNW,288,2.4,12.7,46,0.00,CLR,,0.01,819.0,WeatherDisplay:10.37,2013-04-08 22:20:00,
2013-04-08 15:25:00,63.9,43.3,29.91,WSW,238,1.5,3.5,47,0.00,CLR,,0.01,809.0,WeatherDisplay:10.37,2013-04-08 22:25:00,
2013-04-08 15:30:00,64.1,43.4,29.91,WNW,302,1.8,3.5,47,0.00,CLR,,0.01,795.0,WeatherDisplay:10.37,2013-04-08 22:30:00,
2013-04-08 15:35:00,63.7,43.1,29.91,WNW,291,3.5,8.1,47,0.00,CLR,,0.01,786.0,WeatherDisplay:10.37,2013-04-08 22:35:00,
2013-04-08 15:40:00,63.4,43.4,29.91,WNW,287,3.9,9.2,48,0.00,CLR,,0.01,773.0,WeatherDisplay:10.37,2013-04-08 22:40:00,
2013-04-08 15:46:00,62.8,42.8,29.91,WNW,293,5.0,17.0,48,0.00,CLR,,0.01,754.0,WeatherDisplay:10.37,2013-04-08 22:46:00,
2013-04-08 15:51:00,62.5,43.6,29.91,WSW,258,1.4,10.4,50,0.00,CLR,,0.01,740.0,WeatherDisplay:10.37,2013-04-08 22:51:00,
2013-04-08 15:56:00,62.6,42.6,29.91,WNW,284,11.3,12.7,48,0.00,CLR,,0.01,729.0,WeatherDisplay:10.37,2013-04-08 22:56:00,
2013-04-08 16:02:00,62.1,43.2,29.91,WNW,283,3.4,8.1,50,0.00,CLR,,0.01,707.0,WeatherDisplay:10.37,2013-04-08 23:02:00,
2013-04-08 16:07:00,62.4,43.5,29.91,West,275,1.5,18.4,50,0.00,CLR,,0.01,696.0,WeatherDisplay:10.37,2013-04-08 23:07:00,
2013-04-08 16:13:00,62.1,43.2,29.91,NW,313,6.2,9.2,50,0.00,CLR,,0.01,677.0,WeatherDisplay:10.37,2013-04-08 23:13:00,
2013-04-08 16:19:00,61.7,42.9,29.91,NW,322,3.8,8.1,50,0.00,CLR,,0.01,659.0,WeatherDisplay:10.37,2013-04-08 23:19:00,
2013-04-08 16:24:00,61.9,43.0,29.91,WNW,288,6.1,12.7,50,0.00,CLR,,0.01,642.0,WeatherDisplay:10.37,2013-04-08 23:24:00,
2013-04-08 16:29:00,61.6,43.3,29.91,NNW,342,3.2,6.9,51,0.00,CLR,,0.01,624.0,WeatherDisplay:10.37,2013-04-08 23:29:00,
2013-04-08 16:35:00,61.3,43.5,29.91,WNW,289,3.1,9.2,52,0.00,CLR,,0.01,606.0,WeatherDisplay:10.37,2013-04-08 23:35:00,
2013-04-08 16:41:00,61.6,44.3,29.91,NNE,26,2.3,3.5,53,0.00,CLR,,0.01,587.0,WeatherDisplay:10.37,2013-04-08 23:41:00,
2013-04-08 16:46:00,61.1,43.8,29.91,WNW,287,3.3,5.8,53,0.00,CLR,,0.01,570.0,WeatherDisplay:10.37,2013-04-08 23:46:00,
2013-04-08 16:52:00,61.0,44.2,29.91,WSW,248,3.8,8.1,54,0.00,CLR,,0.01,548.0,WeatherDisplay:10.37,2013-04-08 23:52:00,
2013-04-08 16:57:00,60.9,44.1,29.91,WNW,296,6.3,8.1,54,0.00,CLR,,0.01,529.0,WeatherDisplay:10.37,2013-04-08 23:57:00,
2013-04-08 17:04:00,60.4,43.7,29.91,West,281,2.9,11.5,54,0.00,CLR,,0.01,504.0,WeatherDisplay:10.37,2013-04-09 00:04:00,
2013-04-08 17:09:00,60.0,43.3,29.92,West,273,7.6,15.0,54,0.00,CLR,,0.01,431.0,WeatherDisplay:10.37,2013-04-09 00:09:00,
2013-04-08 17:15:00,59.7,43.5,29.92,NNW,340,3.3,3.5,55,0.00,CLR,,0.01,466.0,WeatherDisplay:10.37,2013-04-09 00:15:00,
2013-04-08 17:21:00,59.7,43.5,29.92,NNW,327,1.1,3.5,55,0.00,CLR,,0.01,443.0,WeatherDisplay:10.37,2013-04-09 00:21:00,
2013-04-08 17:27:00,59.2,43.0,29.92,WNW,292,8.7,17.3,55,0.00,CLR,,0.01,420.0,WeatherDisplay:10.37,2013-04-09 00:27:00,
2013-04-08 17:32:00,58.7,43.5,29.92,NW,325,2.7,5.8,57,0.00,CLR,,0.01,360.0,WeatherDisplay:10.37,2013-04-09 00:32:00,
2013-04-08 17:37:00,58.5,42.8,29.92,West,272,1.2,11.5,56,0.00,BKN,,0.01,58.0,WeatherDisplay:10.37,2013-04-09 00:37:00,
2013-04-08 17:43:00,58.1,42.9,29.92,North,355,1.5,2.3,57,0.00,BKN,,0.01,54.0,WeatherDisplay:10.37,2013-04-09 00:43:00,
2013-04-08 17:49:00,57.8,42.7,29.92,NW,304,2.0,3.5,57,0.00,BKN,,0.01,74.0,WeatherDisplay:10.37,2013-04-09 00:49:00,
2013-04-08 17:54:00,57.6,42.5,29.92,South,183,5.6,10.4,57,0.00,BKN,,0.01,42.0,WeatherDisplay:10.37,2013-04-09 00:54:00,
2013-04-08 17:59:00,57.4,42.3,29.92,NNE,19,2.4,11.5,57,0.00,BKN,,0.01,39.0,WeatherDisplay:10.37,2013-04-09 00:59:00,
2013-04-08 18:05:00,57.1,42.5,29.91,West,277,3.3,13.8,58,0.00,BKN,,0.01,37.0,WeatherDisplay:10.37,2013-04-09 01:05:00,
2013-04-08 18:10:00,57.0,41.9,29.92,NW,323,9.6,12.7,57,0.00,BKN,,0.01,35.0,WeatherDisplay:10.37,2013-04-09 01:10:00,
2013-04-08 18:16:00,57.0,42.4,29.92,WNW,288,3.0,12.0,58,0.00,BKN,,0.01,33.0,WeatherDisplay:10.37,2013-04-09 01:16:00,
2013-04-08 18:21:00,57.0,42.4,29.92,WNW,290,6.1,16.1,58,0.00,BKN,,0.01,33.0,WeatherDisplay:10.37,2013-04-09 01:21:00,
2013-04-08 18:27:00,56.7,42.1,29.92,NNE,13,3.2,6.9,58,0.00,BKN,,0.01,32.0,WeatherDisplay:10.37,2013-04-09 01:27:00,
2013-04-08 18:32:00,56.4,42.2,29.92,NE,41,2.5,6.9,59,0.00,BKN,,0.01,30.0,WeatherDisplay:10.37,2013-04-09 01:32:00,
2013-04-08 18:37:00,56.1,42.0,29.92,WNW,298,6.7,11.5,59,0.00,BKN,,0.01,28.0,WeatherDisplay:10.37,2013-04-09 01:37:00,
2013-04-08 18:42:00,55.8,42.1,29.92,WSW,253,2.3,9.2,60,0.00,BKN,,0.01,26.0,WeatherDisplay:10.37,2013-04-09 01:42:00,
2013-04-08 18:47:00,55.6,41.9,29.92,WNW,286,2.1,10.4,60,0.00,BKN,,0.01,25.0,WeatherDisplay:10.37,2013-04-09 01:47:00,
2013-04-08 18:52:00,55.3,42.1,29.92,WNW,283,5.3,8.1,61,0.00,BKN,,0.01,23.0,WeatherDisplay:10.37,2013-04-09 01:52:00,
2013-04-08 18:57:00,55.1,41.9,29.93,West,275,6.6,12.7,61,0.00,BKN,,0.01,21.0,WeatherDisplay:10.37,2013-04-09 01:57:00,
2013-04-08 19:02:00,55.0,42.2,29.93,WNW,282,1.7,8.1,62,0.00,BKN,,0.01,21.0,WeatherDisplay:10.37,2013-04-09 02:02:00,
2013-04-08 19:07:00,54.7,42.3,29.93,NE,40,2.7,8.1,63,0.00,BKN,,0.01,18.0,WeatherDisplay:10.37,2013-04-09 02:07:00,
2013-04-08 19:12:00,54.5,42.2,29.93,West,279,4.7,9.0,63,0.00,BKN,,0.01,16.0,WeatherDisplay:10.37,2013-04-09 02:12:00,
2013-04-08 19:17:00,54.3,42.0,29.93,North,11,5.3,11.5,63,0.00,BKN,,0.01,14.0,WeatherDisplay:10.37,2013-04-09 02:17:00,
2013-04-08 19:22:00,54.2,42.3,29.93,West,278,2.8,5.8,64,0.00,BKN,,0.01,12.0,WeatherDisplay:10.37,2013-04-09 02:22:00,
2013-04-08 19:27:00,54.0,42.1,29.93,North,360,1.7,6.9,64,0.00,BKN,,0.01,9.0,WeatherDisplay:10.37,2013-04-09 02:27:00,
2013-04-08 19:32:00,54.0,41.7,29.93,NNE,19,2.4,4.6,63,0.00,BKN,,0.01,7.0,WeatherDisplay:10.37,2013-04-09 02:32:00,
2013-04-08 19:39:00,53.8,41.9,29.94,North,5,2.3,4.6,64,0.00,,,0.01,0.0,WeatherDisplay:10.37,2013-04-09 02:39:00,
2013-04-08 19:44:00,53.7,42.2,29.94,North,355,2.0,6.9,65,0.00,,,0.01,0.0,WeatherDisplay:10.37,2013-04-09 02:44:00,
2013-04-08 19:49:00,53.6,42.1,29.94,WNW,302,1.2,3.5,65,0.00,,,0.01,0.0,WeatherDisplay:10.37,2013-04-09 02:49:00,
2013-04-08 19:54:00,53.4,41.9,29.94,West,275,3.7,4.6,65,0.00,,,0.01,0.0,WeatherDisplay:10.37,2013-04-09 02:54:00,
2013-04-08 19:59:00,53.4,41.9,29.94,West,274,5.3,11.5,65,0.00,,,0.01,0.0,WeatherDisplay:10.37,2013-04-09 02:59:00,
2013-04-08 20:04:00,53.3,41.8,29.95,West,261,6.1,10.4,65,0.00,,,0.01,0.0,WeatherDisplay:10.37,2013-04-09 03:04:00,
2013-04-08 20:09:00,53.3,41.8,29.95,West,275,5.5,9.2,65,0.00,,,0.01,0.0,WeatherDisplay:10.37,2013-04-09 03:09:00,
2013-04-08 20:14:00,53.3,41.8,29.95,West,272,3.4,8.1,65,0.00,,,0.01,0.0,WeatherDisplay:10.37,2013-04-09 03:14:00,
2013-04-08 20:19:00,53.1,41.6,29.95,WNW,288,2.0,3.5,65,0.00,,,0.01,0.0,WeatherDisplay:10.37,2013-04-09 03:19:00,
2013-04-08 20:24:00,52.9,41.4,29.95,NNE,20,3.7,10.4,65,0.00,,,0.01,0.0,WeatherDisplay:10.37,2013-04-09 03:24:00,
2013-04-08 20:29:00,52.9,41.4,29.95,WNW,296,3.0,6.9,65,0.00,,,0.01,0.0,WeatherDisplay:10.37,2013-04-09 03:29:00,
2013-04-08 20:35:00,53.0,41.5,29.96,NNE,19,1.5,5.8,65,0.00,,,0.01,0.0,WeatherDisplay:10.37,2013-04-09 03:35:00,
2013-04-08 20:40:00,53.3,41.4,29.96,WNW,283,2.3,4.6,64,0.00,,,0.01,0.0,WeatherDisplay:10.37,2013-04-09 03:40:00,
2013-04-08 20:45:00,53.3,41.4,29.96,West,279,0.4,1.2,64,0.00,,,0.01,0.0,WeatherDisplay:10.37,2013-04-09 03:45:00,
2013-04-08 20:50:00,53.1,41.2,29.96,West,279,2.1,3.5,64,0.00,,,0.01,0.0,WeatherDisplay:10.37,2013-04-09 03:50:00,
2013-04-08 20:55:00,52.9,41.0,29.97,WNW,290,1.6,4.6,64,0.00,,,0.01,0.0,WeatherDisplay:10.37,2013-04-09 03:55:00,
2013-04-08 21:00:00,52.7,41.7,29.96,WNW,294,1.1,2.3,66,0.00,,,0.01,0.0,WeatherDisplay:10.37,2013-04-09 04:00:00,
2013-04-08 21:01:00,52.6,41.6,29.97,WNW,294,0.0,2.3,66,0.00,,,0.01,0.0,WeatherDisplay:10.37,2013-04-09 04:01:00,
2013-04-08 21:02:00,52.6,41.6,29.97,WNW,294,0.0,2.3,66,0.00,,,0.01,0.0,WeatherDisplay:10.37,2013-04-09 04:02:00,
2013-04-08 21:06:00,52.4,41.3,29.97,WNW,293,0.0,3.0,66,0.00,,,0.01,0.0,WeatherDisplay:10.37,2013-04-09 04:06:00,
2013-04-08 21:11:00,52.0,41.4,29.97,WNW,294,1.1,2.3,67,0.00,,,0.01,0.0,WeatherDisplay:10.37,2013-04-09 04:11:00,
2013-04-08 21:16:00,51.7,41.5,29.97,WNW,294,0.4,1.2,68,0.00,,,0.01,0.0,WeatherDisplay:10.37,2013-04-09 04:16:00,
2013-04-08 21:21:00,51.5,41.3,29.97,WNW,286,1.6,4.6,68,0.00,,,0.01,0.0,WeatherDisplay:10.37,2013-04-09 04:21:00,
2013-04-08 21:26:00,51.4,41.6,29.98,WNW,286,0.1,3.0,69,0.00,,,0.01,0.0,WeatherDisplay:10.37,2013-04-09 04:26:00,
2013-04-08 21:32:00,51.2,41.4,29.98,West,275,1.6,3.5,69,0.00,,,0.01,0.0,WeatherDisplay:10.37,2013-04-09 04:32:00,
2013-04-08 21:37:00,51.1,41.3,29.98,West,275,1.1,2.3,69,0.00,,,0.01,0.0,WeatherDisplay:10.37,2013-04-09 04:37:00,
2013-04-08 21:42:00,51.1,41.3,29.99,West,278,0.2,3.5,69,0.00,,,0.01,0.0,WeatherDisplay:10.37,2013-04-09 04:42:00,
2013-04-08 21:47:00,51.0,41.2,29.99,WNW,297,2.2,3.5,69,0.00,,,0.01,0.0,WeatherDisplay:10.37,2013-04-09 04:47:00,
2013-04-08 21:52:00,51.1,41.3,29.99,WNW,299,0.7,2.3,69,0.00,,,0.01,0.0,WeatherDisplay:10.37,2013-04-09 04:52:00,
2013-04-08 21:57:00,51.5,41.3,29.99,NW,322,0.2,2.3,68,0.00,,,0.01,0.0,WeatherDisplay:10.37,2013-04-09 04:57:00,
2013-04-08 22:02:00,51.4,41.2,29.99,NW,322,0.0,0.0,68,0.00,,,0.01,0.0,WeatherDisplay:10.37,2013-04-09 05:02:00,
2013-04-08 22:07:00,51.1,41.3,29.99,NW,322,0.1,1.2,69,0.00,,,0.01,0.0,WeatherDisplay:10.37,2013-04-09 05:07:00,
2013-04-08 22:12:00,50.9,41.1,30.00,NW,306,0.8,3.5,69,0.00,,,0.01,0.0,WeatherDisplay:10.37,2013-04-09 05:12:00,
2013-04-08 22:17:00,51.0,41.2,30.00,West,277,2.2,3.5,69,0.00,,,0.01,0.0,WeatherDisplay:10.37,2013-04-09 05:17:00,
2013-04-08 22:22:00,51.5,40.9,30.00,WNW,286,3.0,6.9,67,0.00,,,0.01,0.0,WeatherDisplay:10.37,2013-04-09 05:22:00,
2013-04-08 22:27:00,52.0,41.0,29.99,West,269,2.1,5.8,66,0.00,,,0.01,0.0,WeatherDisplay:10.37,2013-04-09 05:27:00,
2013-04-08 22:32:00,52.5,40.7,29.99,WNW,298,2.2,4.0,64,0.00,,,0.01,0.0,WeatherDisplay:10.37,2013-04-09 05:32:00,
2013-04-08 22:37:00,52.7,40.5,30.00,WNW,284,1.5,3.5,63,0.00,,,0.01,0.0,WeatherDisplay:10.37,2013-04-09 05:37:00,
2013-04-08 22:42:00,52.9,40.6,30.00,WNW,284,1.1,3.5,63,0.00,,,0.01,0.0,WeatherDisplay:10.37,2013-04-09 05:42:00,
2013-04-08 22:47:00,53.0,40.3,30.00,WNW,291,1.8,2.3,62,0.00,,,0.01,0.0,WeatherDisplay:10.37,2013-04-09 05:47:00,
2013-04-08 22:52:00,53.2,40.1,30.00,West,280,2.9,5.8,61,0.00,,,0.01,0.0,WeatherDisplay:10.37,2013-04-09 05:52:00,
2013-04-08 22:57:00,53.4,40.3,30.00,West,279,3.7,5.8,61,0.00,,,0.01,0.0,WeatherDisplay:10.37,2013-04-09 05:57:00,
2013-04-08 23:02:00,53.6,40.0,30.00,SW,225,2.2,10.4,60,0.00,,,0.01,0.0,WeatherDisplay:10.37,2013-04-09 06:02:00,
2013-04-08 23:07:00,53.6,40.0,30.00,West,280,2.9,10.0,60,0.00,,,0.01,0.0,WeatherDisplay:10.37,2013-04-09 06:07:00,
2013-04-08 23:12:00,53.7,39.7,30.00,WNW,299,6.0,11.5,59,0.00,,,0.01,0.0,WeatherDisplay:10.37,2013-04-09 06:12:00,
2013-04-08 23:17:00,53.9,39.9,30.00,West,276,4.5,8.1,59,0.00,,,0.01,0.0,WeatherDisplay:10.37,2013-04-09 06:17:00,
2013-04-08 23:22:00,54.0,39.5,30.00,WNW,291,3.3,9.2,58,0.00,,,0.01,0.0,WeatherDisplay:10.37,2013-04-09 06:22:00,
2013-04-08 23:27:00,54.1,39.6,30.00,WNW,290,2.5,11.5,58,0.00,,,0.01,0.0,WeatherDisplay:10.37,2013-04-09 06:27:00,
2013-04-08 23:32:00,54.2,39.3,30.00,West,279,6.2,9.2,57,0.00,,,0.01,0.0,WeatherDisplay:10.37,2013-04-09 06:32:00,
2013-04-08 23:37:00,54.3,39.4,30.00,West,272,2.7,9.2,57,0.00,,,0.01,0.0,WeatherDisplay:10.37,2013-04-09 06:37:00,
2013-04-08 23:42:00,54.3,38.9,30.00,WNW,284,3.8,6.9,56,0.00,,,0.01,0.0,WeatherDisplay:10.37,2013-04-09 06:42:00,
2013-04-08 23:48:00,54.4,39.0,30.00,WNW,284,1.0,3.5,56,0.00,,,0.01,0.0,WeatherDisplay:10.37,2013-04-09 06:48:00,
2013-04-08 23:53:00,54.4,39.0,30.00,North,9,2.0,4.6,56,0.00,,,0.01,0.0,WeatherDisplay:10.37,2013-04-09 06:53:00,
2013-04-08 23:59:00,54.0,39.1,30.01,West,281,0.2,1.2,57,0.00,,,0.01,0.0,WeatherDisplay:10.37,2013-04-09 06:59:00,